Regional Weather Roundup
Issued by NWS

Home | Current Version | Previous Version | Text Only | Print | Product List | Glossary On
Versions: 1 2 3 4 5 6 7 8 9 10 11 12 13 14 15 16 17 18 19 20 21 22 23 24 25 26 27 28 29 30 31 32 33 34 35 36 37 38 39 40 41 42 43 44 45 46 47 48 49 50
000
ASUS42 KTBW 282217
RWRFL
FLORIDA REGIONAL WEATHER ROUNDUP
NATIONAL WEATHER SERVICE TAMPA BAY RUSKIN FL
600 PM EDT TUE JUL 28 2015

NOTE: "FAIR" INDICATES FEW OR NO CLOUDS BELOW 12,000 FEET WITH NO
SIGNIFICANT WEATHER AND/OR OBSTRUCTIONS TO VISIBILITY.


FLZ001>010-012>015-112-114-115-282300-
PANHANDLE FLORIDA

CITY           SKY/WX    TMP DP  RH WIND       PRES   REMARKS
PENSACOLA      PTSUNNY   94  75  54 SW13      29.93F HX 105
PENSACOLA NAS  MOSUNNY   92  75  57 SW12      29.93F HX 103
MILTON NAS     PTSUNNY   96  70  42 VRB5      29.93  HX 102
CRESTVIEW      MOSUNNY   99  71  40 CALM      29.94F HX 107
DUKE FIELD     PTSUNNY   98  69  39 N6        29.93S HX 104
VALPARAISO     MOSUNNY   96  72  46 SW5       29.92F HX 104
MARY ESTHER    MOSUNNY   92  68  45 SW10      29.92F HX  97
TRI COUNTY     FAIR      91  76  61 CALM      29.93F HX 103
PANAMA CITY    MOCLDY    90  74  59 SW10      29.91S HX  99
TYNDALL AFB    MOSUNNY   92  76  60 W10       29.93S HX 104
APALACHICOLA   MOSUNNY   90  75  61 SW10      29.93S THUNDER HX 100

STATION/POSITION SKY/WX   TEMP    WIND        PRES    WAVE   SWELL
                          AIR SEA DIR/SP/G            HT/PER HT/PER
                          (F)     (DEG/KT/KT) (MB)    (FT/S) (FT/S)
30.1N   87.6W              87 87  250/ 10/ 12 1013.4F   1
29.2N   88.2W              87 91  320/  6/  8 1015.0F   1/ 3
28.8N   86.0W              87 87  300/  8/ 10 1014.6F   2/ 4
PANAMA CITY BEAC           86 85  250/  9/ 11 1013.4F
CAPE SAN BLAS    NOT AVBL
TOWER C                    86     230/  7/  7 1013.8F
28.5N   84.5W              84 85  250/ 12/ 14 1014.0F   2/ 5

$$
FLZ011-016>038-118-127-128-134-139-239-282300-
NORTH FLORIDA

CITY           SKY/WX    TMP DP  RH WIND       PRES   REMARKS
MARIANNA       MOSUNNY   95  71  45 CALM      29.92S HX 102
TALLAHASSEE    PTSUNNY   99  69  37 CALM      29.91F HX 105
PERRY          MOSUNNY   93  72  49 CALM      29.92S HX 101
CROSS CITY       N/A     93  74  53 N5        29.91S HX 103
LAKE CITY      PTSUNNY   88  75  66 NE5       29.92S HX  97
GAINESVILLE    MOSUNNY   89  75  63 NE9       29.91S HX  99
MAYPORT NAS    PTSUNNY   85  77  77 NE12      29.93R HX  95
JACKSONVILLE   PTSUNNY   88  74  63 NE10      29.92S HX  96
JAX NAS        PTSUNNY   91  74  57 NE14      29.92S HX 100
JAX CRAIG      MOSUNNY   86  74  67 NE12      29.93R
JAX CECIL      SUNNY     84  75  74 NE8       29.92S
FERNANDINA BEA FAIR      88  77  70 NE13      29.92F HX 100
ST AUGUSTINE   PTSUNNY   84  79  84 NE13      29.93S HX  96

STATION/POSITION SKY/WX   TEMP    WIND        PRES    WAVE   SWELL
                          AIR SEA DIR/SP/G            HT/PER HT/PER
                          (F)     (DEG/KT/KT) (MB)    (FT/S) (FT/S)
SHELL POINT                89     190/  8/ 12   N/A
KEATON BEACH               88     270/  9/ 10 1013.0F
CEDAR KEY                  87     270/  9/ 11 1013.5F
FERNANDINA                 86 85   50/  6/ 16 1012.9F
30.7N   81.3W                 82                N/A     2/11
MAYPORT                    82 81   40/ 12/ 15 1013.8R
31.4N   80.9W              82 82   50/ 10/ 12 1013.6F   2/ 5   2/ 5
ST AUGUSTINE               81 83   20/ 11/ 11 1013.9F

$$
FLZ040-043>046-052-053-057-058-063-144-282300-
INTERIOR CENTRAL FLORIDA

CITY           SKY/WX    TMP DP  RH WIND       PRES   REMARKS
OCALA          PTSUNNY   81  75  83 CALM      29.92R
THE VILLAGES     N/A     79  79 100 NE10G17   29.84R
LEESBURG       TSTM      79  77  94 NE23G29   29.95R FOG
SANFORD        CLOUDY    80  77  90 W8        29.93R THUNDER
ORLANDO EXEC   CLOUDY    79  79 100 SW12      29.92S
ORLANDO INTL   TSTM      77  77 100 SW8       29.94S
KISSIMMEE      PTSUNNY   75  73  94 SW9       29.95S
WINTER HAVEN   CLOUDY    80  78  94 SW6       29.96F
LAKELAND       PTSUNNY   81  79  94 SW5       29.95F
BARTOW         FAIR      81  79  94 CALM      29.96F
OKEECHOBEE     CLOUDY   N/A N/A N/A W10       29.95S

$$
FLZ041-047-054-059-064-141-147-282300-
EAST CENTRAL FLORIDA

CITY           SKY/WX    TMP DP  RH WIND       PRES   REMARKS
ORMOND BEACH   CLOUDY    81  77  89 NE6       29.92R
DAYTONA BEACH  PTSUNNY   82  77  84 NW5       29.92S
DELAND           N/A     81  77  89 CALM      29.94S
NEW SMYRNA BEA LGT RAIN  79  77  94 W12       29.92S FOG
JFK SPACE CTR  DRIZZLE   78  75  91 W9        29.92R
TITUSVILLE     PTSUNNY   77  75  94 W12       29.94S
CAPE CANAVERAL CLOUDY    82  74  76 W9        29.92R
PATRICK AFB    LGT RAIN  82  75  81 SW10      29.94R
MELBOURNE      LGT RAIN  76  75  97 SW8       29.93F
VERO BEACH     PTSUNNY   83  70  64 W8        29.95S
FT PIERCE      PTSUNNY   82  77  84 W5        29.95R
STUART         MOSUNNY   91  68  46 SW16G25   29.96R HX  95

STATION/POSITION SKY/WX   TEMP    WIND        PRES    WAVE   SWELL
                          AIR SEA DIR/SP/G            HT/PER HT/PER
                          (F)     (DEG/KT/KT) (MB)    (FT/S) (FT/S)
28.5N   80.2W              80 81  210/ 19/ 23 1013.7R
28.9N   78.5W              85 84  190/ 12/ 14 1014.4F
TRIDENT PIER               82 79  250/ 13/ 18 1013.8R
28.4N   80.5W                 78                N/A     2/ 2
27.5N   80.2W                 78                N/A     2/11

$$
FLZ050-056-061-142-242-148-248-149-249-151-251-155-255-
160-260-282300-
WEST CENTRAL FLORIDA

CITY           SKY/WX    TMP DP  RH WIND       PRES   REMARKS
CRYSTAL RIVER  FAIR      86  77  74 W10G16    29.92S HX  97
INVERNESS      FAIR      81  79  94 CALM      29.92S
BROOKSVILLE    CLOUDY    84  77  79 SW10      29.94F
ZEPHYRHILLS    FAIR      79  79 100 CALM      29.95S
CLEARWATER     CLOUDY    83  76  79 W9        29.95S
TAMPA INTL     CLOUDY    84  75  74 W6        29.95S
TAMPA EXEC     CLOUDY    84  77  79 W3        29.95F
PLANT CITY     CLOUDY    84  79  84 SW6       29.96F HX  96
MACDILL AFB    CLOUDY    84  79  83 W6        29.94S HX  96
PETER O KNIGHT CLOUDY    86  77  74 W3        29.95F HX  97
ST PETERSBURG  CLOUDY    84  76  76 W9        29.93S
SARASOTA       CLOUDY    83  76  79 W14       29.95S
VENICE         FAIR      84  77  79 W9        29.97F

STATION/POSITION SKY/WX   TEMP    WIND        PRES    WAVE   SWELL
                          AIR SEA DIR/SP/G            HT/PER HT/PER
                          (F)     (DEG/KT/KT) (MB)    (FT/S) (FT/S)
CEDAR KEY                  87     270/  9/ 11 1013.5F
28.5N   84.5W              84 85  250/ 12/ 14 1014.0F   2/ 5
27.3N   84.2W                 85                N/A     2/ 4
CLEARWATER BEACH           82 84  280/  9/ 10 1014.4F
MIDDLE TAMPA BAY           82     300/ 13/ 16 1014.5F
VENICE                     84 85  250/  9/ 11 1014.0F

$$
FLZ066-069-070-075>078-162-262-165-265-282300-
SOUTHWEST FLORIDA AND KEYS

CITY           SKY/WX    TMP DP  RH WIND       PRES   REMARKS
PUNTA GORDA    PTSUNNY   86  76  71 W12       29.98S HX  96
FT MYERS       PTSUNNY   87  75  67 W14       29.97R HX  96
SOUTHWEST INTL MOSUNNY   86  74  67 W13       29.98R
NAPLES         PTSUNNY   88  77  69 W9        29.97F HX 100
MARCO ISLAND   PTCLDY    90  73  58 W12       29.98F HX  98
MARATHON       SUNNY     90  78  68 CALM      29.99F HX 104
KEY WEST NAS   MOSUNNY   90  72  55 N6        30.00S HX  97
KEY WEST INTL  SUNNY     91  71  51 W3        30.00S HX  97

STATION/POSITION SKY/WX   TEMP    WIND        PRES    WAVE   SWELL
                          AIR SEA DIR/SP/G            HT/PER HT/PER
                          (F)     (DEG/KT/KT) (MB)    (FT/S) (FT/S)
VENICE                     84 85  250/  9/ 11 1014.0F
NAPLES                        87              1016.3F
26.0N   85.6W              84 85  300/  8/ 10 1015.3F   2/ 9   2/ 9
DRY TORTUGAS               88     330/  4/  5 1016.0F
NW FL BAY                  87     270/  5/  6 1015.8
SAND KEY                   88     330/  1/  2 1016.0R
SOMBRERO KEY               91     190/  2/  3 1016.4F
LONG KEY                   87 89  280/  3/  4 1016.4F
MOLASSES REEF              86 88  220/  8/  9 1015.5F

$$
FLZ067-068-071>074-168-172>174-282300-
SOUTHEAST FLORIDA

CITY           SKY/WX    TMP DP  RH WIND       PRES   REMARKS
W PALM BEACH   PTSUNNY   93  68  43 SW12      29.96S HX  97
FT LAUDER-EXEC MOSUNNY   95  66  38 SW9       29.95F HX  98
FT LAUDERDALE  PTSUNNY   89  74  60 S12       29.95F HX  98
POMPANO BEACH  SUNNY     90  75  61 SE15      29.96S HX 100
PEMBROKE PINES MOSUNNY   93  74  53 S12       29.97S HX 103
OPA LOCKA      PTSUNNY   91  76  61 S13       29.97S HX 103
MIAMI          PTSUNNY   91  75  59 S8G18     29.97S HX 101
WEST KENDALL   PTSUNNY   93  69  45 W12       29.97S HX  98
HOMESTEAD      MOSUNNY   90  76  62 S8        29.97S HX 101

STATION/POSITION SKY/WX   TEMP    WIND        PRES    WAVE   SWELL
                          AIR SEA DIR/SP/G            HT/PER HT/PER
                          (F)     (DEG/KT/KT) (MB)    (FT/S) (FT/S)
PORT EVERGLADES            88     170/ 11/ 17 1014.7F
VIRGINIA KEY               87 88  170/ 13/ 16 1014.9F
LAKE WORTH                 86 85  170/ 17/ 19 1014.2S



USA.gov is the U.S. government's official web portal to all federal, state and local government web resources and services.